Date String (YYYY-MM-DD hh:mm:ss) UTC,Instrument flags,Ambient pressure (hPa),Sample flow (lpm),Bypass flow (lpm),Sample temperature (°C),Ambient temperature (°C),ASC tube jacket temperature (°C),LED temperature (°C),Box temperature (°C),Sample RH (%),Span deviation,Mass concentration (μg/m³),Mass concentration (μg/m³),Mass concentration (μg/m³)
DateTimeUTC,F1_M11,P_M11,Q1_M11,Q2_M11,T1_M11,T2_M11,T3_M11,T4_M11,T5_M11,U1_M11,ZSPAN_M11,X0_M11,X2_M11,X1_M11
2022-03-02 09:00:00,,0829.9,5.01,0.00,27.4,26.4,00.0,36.5,29.1,09.5,0000.0,0000.49,0000.33,0000.26
2022-03-02 09:01:00,,0829.8,5.01,0.00,27.4,26.4,00.0,36.5,29.1,09.4,0000.0,0000.46,0000.31,0000.25
2022-03-02 09:02:00,,0829.9,5.00,0.00,27.4,26.4,00.0,36.5,29.1,09.3,0000.0,0000.47,0000.31,0000.25
2022-03-02 09:03:00,,0829.8,5.00,0.00,27.4,26.4,00.0,36.5,29.1,09.7,0000.0,0000.48,0000.32,0000.25
2022-03-02 09:04:00,,0829.8,4.99,0.00,27.4,26.5,00.0,36.5,29.1,09.7,0000.0,0000.49,0000.32,0000.25
2022-03-02 09:05:00,,0829.8,4.99,0.00,27.4,26.4,00.0,36.5,29.1,09.5,0000.0,0000.54,0000.35,0000.26
2022-03-02 09:06:00,,0829.8,5.01,0.00,27.4,26.4,00.0,36.5,29.1,09.6,0000.0,0000.54,0000.34,0000.26
2022-03-02 09:07:00,,0829.8,5.01,0.00,27.4,26.4,00.0,36.5,29.1,09.6,0000.0,0000.53,0000.34,0000.26
2022-03-02 09:08:00,,0829.7,5.00,0.00,27.4,26.4,00.0,36.5,29.1,09.7,0000.0,0000.52,0000.34,0000.26
2022-03-02 09:09:00,,0829.7,5.00,0.00,27.4,26.4,00.0,36.5,29.1,09.8,0000.0,0000.54,0000.35,0000.26
2022-03-02 09:10:00,,0829.7,4.99,0.00,27.4,26.4,00.0,36.5,29.0,09.8,0000.0,0000.54,0000.36,0000.26
2022-03-02 09:11:00,,0829.7,5.00,0.00,27.4,26.4,00.0,36.5,29.1,09.8,0000.0,0000.50,0000.34,0000.26
2022-03-02 09:12:00,,0829.7,5.00,0.00,27.4,26.4,00.0,36.5,29.0,09.9,0000.0,0000.51,0000.34,0000.26
2022-03-02 09:13:00,,0829.7,5.01,0.00,27.4,26.4,00.0,36.4,29.0,09.9,0000.0,0000.51,0000.35,0000.26
2022-03-02 09:14:00,,0829.6,5.00,0.00,27.3,26.4,00.0,36.4,29.0,10.0,0000.0,0000.53,0000.35,0000.25
2022-03-02 09:15:00,,0829.6,5.00,0.00,27.3,26.4,00.0,36.4,29.0,10.0,0000.0,0000.54,0000.36,0000.25
2022-03-02 09:16:00,,0829.6,5.00,0.00,27.3,26.4,00.0,36.4,28.9,10.0,0000.0,0000.51,0000.34,0000.24
2022-03-02 09:17:00,,0829.6,5.00,0.00,27.3,26.4,00.0,36.4,29.0,10.1,0000.0,0000.53,0000.35,0000.24
2022-03-02 09:18:00,,0829.6,5.00,0.00,27.3,26.3,00.0,36.4,28.9,10.1,0000.0,0000.56,0000.36,0000.24
2022-03-02 09:19:00,,0829.6,5.00,0.00,27.3,26.4,00.0,36.4,28.9,10.1,0000.0,0000.56,0000.36,0000.24
2022-03-02 09:20:00,,0829.6,5.00,0.00,27.3,26.4,00.0,36.4,29.0,10.1,0000.0,0000.54,0000.35,0000.24
2022-03-02 09:21:00,,0829.6,5.00,0.00,27.3,26.4,00.0,36.4,28.9,10.1,0000.0,0000.54,0000.35,0000.24
2022-03-02 09:22:00,,0829.6,4.99,0.00,27.3,26.4,00.0,36.4,28.9,10.2,0000.0,0000.54,0000.35,0000.24
2022-03-02 09:23:00,,0829.6,5.01,0.00,27.3,26.4,00.0,36.4,28.9,10.2,0000.0,0000.54,0000.36,0000.24
2022-03-02 09:24:00,,0829.6,5.00,0.00,27.3,26.4,00.0,36.4,28.9,10.2,0000.0,0000.55,0000.36,0000.24
2022-03-02 09:25:00,,0829.6,5.00,0.00,27.3,26.4,00.0,36.4,28.9,10.1,0000.0,0000.52,0000.35,0000.24
2022-03-02 09:26:00,,0829.5,5.00,0.00,27.2,26.4,00.0,36.4,28.9,10.1,0000.0,0000.49,0000.34,0000.24
2022-03-02 09:27:00,,0829.6,4.99,0.00,27.2,26.3,00.0,36.3,28.9,10.0,0000.0,0000.52,0000.35,0000.26
2022-03-02 09:28:00,,0829.6,5.00,0.00,27.2,26.3,00.0,36.3,28.9,10.1,0000.0,0000.55,0000.36,0000.26
2022-03-02 09:29:00,,0829.6,5.00,0.00,27.2,26.3,00.0,36.3,28.9,10.0,0000.0,0000.57,0000.37,0000.26
2022-03-02 09:30:00,,0829.5,5.00,0.00,27.2,26.3,00.0,36.3,28.9,10.0,0000.0,0000.61,0000.38,0000.26
2022-03-02 09:31:00,,0829.6,5.00,0.00,27.2,26.3,00.0,36.3,28.9,10.0,0000.0,0000.63,0000.38,0000.26
2022-03-02 09:32:00,,0829.6,5.00,0.00,27.2,26.3,00.0,36.3,28.9,10.0,0000.0,0000.94,0000.38,0000.26
2022-03-02 09:33:00,,0829.6,5.00,0.00,27.2,26.3,00.0,36.3,28.9,09.9,0000.0,0001.07,0000.40,0000.26
2022-03-02 09:34:00,,0829.6,5.00,0.00,27.2,26.3,00.0,36.3,28.9,09.9,0000.0,0001.06,0000.39,0000.26
2022-03-02 09:35:00,,0829.6,5.00,0.00,27.2,26.3,00.0,36.3,28.9,09.9,0000.0,0001.04,0000.38,0000.26
2022-03-02 09:36:00,,0829.6,5.01,0.00,27.2,26.3,00.0,36.3,28.9,09.9,0000.0,0001.05,0000.39,0000.26
2022-03-02 09:37:00,,0829.6,4.99,0.00,27.2,26.3,00.0,36.3,28.9,09.9,0000.0,0001.07,0000.39,0000.27
2022-03-02 09:38:00,,0829.5,5.00,0.00,27.2,26.2,00.0,36.3,28.9,09.8,0000.0,0001.01,0000.37,0000.26
2022-03-02 09:39:00,,0829.5,5.00,0.00,27.2,26.3,00.0,36.3,28.9,09.8,0000.0,0000.94,0000.35,0000.26
2022-03-02 09:40:00,,0829.5,5.00,0.00,27.2,26.3,00.0,36.3,28.9,09.8,0000.0,0000.90,0000.34,0000.26
2022-03-02 09:41:00,,0829.5,5.01,0.00,27.2,26.3,00.0,36.3,28.9,09.8,0000.0,0000.85,0000.32,0000.26
2022-03-02 09:42:00,,0829.5,4.99,0.00,27.2,26.2,00.0,36.2,28.8,09.7,0000.0,0000.80,0000.30,0000.25
2022-03-02 09:43:00,,0829.5,5.00,0.00,27.2,26.2,00.0,36.2,28.9,09.7,0000.0,0000.46,0000.29,0000.25
2022-03-02 09:44:00,,0829.5,5.01,0.00,27.2,26.2,00.0,36.2,28.9,09.7,0000.0,0000.35,0000.27,0000.24
2022-03-02 09:45:00,,0829.5,4.99,0.00,27.2,26.2,00.0,36.2,28.9,09.8,0000.0,0000.34,0000.26,0000.24
2022-03-02 09:46:00,,0829.5,5.01,0.00,27.2,26.2,00.0,36.2,28.9,09.8,0000.0,0000.35,0000.27,0000.24
2022-03-02 09:47:00,,0829.5,5.01,0.00,27.2,26.3,00.0,36.2,28.9,09.9,0000.0,0000.35,0000.27,0000.24
2022-03-02 09:48:00,,0829.5,5.00,0.00,27.2,26.2,00.0,36.2,28.9,09.8,0000.0,0000.33,0000.26,0000.24
2022-03-02 09:49:00,,0829.5,5.00,0.00,27.2,26.2,00.0,36.2,28.8,09.8,0000.0,0000.34,0000.27,0000.24
2022-03-02 09:50:00,,0829.5,5.00,0.00,27.1,26.2,00.0,36.2,28.8,09.8,0000.0,0000.37,0000.27,0000.24
2022-03-02 09:51:00,,0829.5,5.00,0.00,27.2,26.2,00.0,36.2,28.8,09.8,0000.0,0000.42,0000.30,0000.24
2022-03-02 09:52:00,,0829.5,5.00,0.00,27.1,26.2,00.0,36.2,28.8,09.8,0000.0,0000.43,0000.30,0000.24
2022-03-02 09:53:00,,0829.5,4.99,0.00,27.1,26.2,00.0,36.2,28.8,09.7,0000.0,0000.45,0000.31,0000.25
2022-03-02 09:54:00,,0829.5,4.99,0.00,27.1,26.2,00.0,36.2,28.8,09.6,0000.0,0000.43,0000.30,0000.24
2022-03-02 09:55:00,,0829.5,4.99,0.00,27.1,26.2,00.0,36.2,28.8,09.6,0000.0,0000.43,0000.31,0000.25
2022-03-02 09:56:00,,0829.5,5.00,0.00,27.1,26.2,00.0,36.2,28.8,09.4,0000.0,0000.44,0000.31,0000.25
2022-03-02 09:57:00,,0829.5,5.00,0.00,27.1,26.1,00.0,36.2,28.8,09.4,0000.0,0000.44,0000.31,0000.25
2022-03-02 09:58:00,,0829.5,5.00,0.00,27.1,26.1,00.0,36.2,28.8,09.5,0000.0,0000.45,0000.31,0000.24
2022-03-02 09:59:00,,0829.5,5.00,0.00,27.1,26.1,00.0,36.2,28.8,09.5,0000.0,0000.48,0000.33,0000.25
